Szolnok, Hungary

6:30 AM CET on December 08, 2016 (GMT +0100)
Szolnok

Weather History for LHSN - November, 2012

Change the Weather History Date:

Thursday, November 1, 2012

  Actual Average (LHBP) Record (LHBP)
Temperature  
Mean Temperature 43 °F -  
Max Temperature 53 °F 53 °F 66 °F (2003)
Min Temperature 33 °F 35 °F 21 °F (1997)
Degree Days  
Heating Degree Days 22    
Moisture  
Dew Point 41 °F    
Average Humidity 86    
Maximum Humidity 94    
Minimum Humidity 75    
Precipitation  
Precipitation 0.00 in - - ()
Sea Level Pressure  
Sea Level Pressure 29.58 in    
Wind  
Wind Speed 9 mph ()    
Max Wind Speed 13 mph    
Max Gust Speed -    
Visibility 5.8 miles    
Events Rain    
Averages and records for this station are not official NWS values.
T = Trace of Precipitation, MM = Missing Value Source: Averaged Metar Reports

Daily Weather History Graph

Daily Weather History Graph

Search for Another Location

Airport or City:

Trip Planner

Search our weather history database for the weather conditions in past years. The results will help you decide how hot, cold, wet, or windy it might be!

Date:

Astronomy

Nov. 01, 2012 Rise Set
Actual Time 6:22 AM CET 4:22 PM CET
Civil Twilight 5:50 AM CET 4:54 PM CET
Nautical Twilight 5:14 AM CET 5:30 PM CET
Astronomical Twilight 4:38 AM CET 6:05 PM CET
Moon 5:56 PM CET (11/1) 8:47 AM CET (11/1)
Length of Visible Light 11h 03m
Length of Day
9h 59m
Waning Gibbous, 94% of the Moon is Illuminated
Nov 1
Waning Gibbous
Nov 7
Last Quarter
Nov 13
New
Nov 20
First Quarter
Nov 28
Full

Hourly Weather History & Observations

Time (CET) Temp. Windchill Dew Point Humidity Pressure Visibility Wind Dir Wind Speed Gust Speed Precip Events Conditions
12:15 AM 33.8 °F 27.9 °F 28.4 °F 81% 29.83 in - East 6.7 mph - N/A   Clear
12:45 AM 33.8 °F 27.9 °F 28.4 °F 81% 29.83 in - East 6.7 mph - N/A   Clear
1:15 AM 33.8 °F 26.5 °F 30.2 °F 87% 29.80 in - East 8.9 mph - N/A   Clear
1:45 AM 33.8 °F 26.5 °F 30.2 °F 87% 29.77 in - East 8.9 mph - N/A   Clear
2:15 AM 33.8 °F 26.5 °F 30.2 °F 87% 29.77 in - East 8.9 mph - N/A   Clear
2:45 AM 33.8 °F 26.5 °F 30.2 °F 87% 29.74 in - East 8.9 mph - N/A   Clear
3:15 AM 35.6 °F 28.7 °F 30.2 °F 81% 29.74 in - East 8.9 mph - N/A   Clear
3:45 AM 35.6 °F 28.7 °F 30.2 °F 81% 29.71 in - East 8.9 mph - N/A   Clear
4:15 AM 35.6 °F 28.7 °F 30.2 °F 81% 29.71 in - ENE 8.9 mph - N/A   Clear
4:45 AM 35.6 °F 28.7 °F 30.2 °F 81% 29.68 in - ENE 8.9 mph - N/A   Clear
5:15 AM 35.6 °F 28.7 °F 32.0 °F 87% 29.68 in - ENE 8.9 mph - N/A   Clear
5:45 AM - - - N/A% - 3.1 mi East 13.4 mph - N/A Rain Rain
6:15 AM 37.4 °F 29.9 °F 32.0 °F 81% 29.65 in - East 11.2 mph - N/A   Clear
6:45 AM 37.4 °F 29.9 °F 32.0 °F 81% 29.62 in - East 11.2 mph - N/A   Clear
7:15 AM 37.4 °F 29.1 °F 32.0 °F 81% 29.62 in - East 13.4 mph - N/A   Clear
7:45 AM 39.2 °F 32.2 °F 32.0 °F 75% 29.62 in 6.2 mi East 11.2 mph - N/A   Overcast
8:15 AM 41.0 °F 34.4 °F 33.8 °F 76% 29.59 in 6.2 mi East 11.2 mph - N/A   Overcast
8:20 AM 41.0 °F 34.4 °F 33.8 °F 76% 29.59 in 6.2 mi East 11.2 mph - N/A Rain Light Rain
8:45 AM - - - N/A% - 6.2 mi East 11.2 mph - N/A   Overcast
9:15 AM 41.0 °F 33.6 °F 37.4 °F 87% 29.59 in 6.2 mi East 13.4 mph - N/A Rain Light Rain
9:45 AM 42.8 °F 35.9 °F 39.2 °F 87% 29.56 in 6.2 mi East 13.4 mph - N/A Rain Light Rain
10:02 AM 44.6 °F 38.9 °F 39.2 °F 81% 29.56 in - East 11.2 mph - N/A   Clear
10:15 AM 44.6 °F 38.9 °F 41.0 °F 87% 29.56 in - East 11.2 mph - N/A   Clear
10:45 AM 46.4 °F 41.2 °F 42.8 °F 87% 29.53 in - East 11.2 mph - N/A   Clear
10:58 AM 46.4 °F 41.2 °F 42.8 °F 87% 29.53 in 6.2 mi East 11.2 mph - N/A Rain Light Rain
11:15 AM 46.4 °F 42.0 °F 44.6 °F 93% 29.53 in 6.2 mi East 8.9 mph - N/A Rain Light Rain
11:32 AM 51.8 °F - 46.4 °F 82% 29.50 in - ESE 8.9 mph - N/A   Clear
11:45 AM - - - N/A% - 5.0 mi East 8.9 mph - N/A Rain Rain
12:12 PM 48.2 °F - 44.6 °F 87% 29.50 in 6.2 mi East 8.9 mph - N/A Rain Light Rain Showers
12:15 PM 48.2 °F - 44.6 °F 87% 29.50 in 6.2 mi East 8.9 mph - N/A Rain Light Rain Showers
12:45 PM 48.2 °F - 44.6 °F 87% 29.50 in 6.2 mi East 11.2 mph - N/A Rain Light Rain Showers
1:06 PM 48.2 °F - 46.4 °F 93% 29.50 in 6.2 mi East 8.9 mph - N/A   Overcast
1:15 PM 48.2 °F - 46.4 °F 93% 29.50 in 6.2 mi East 8.9 mph - N/A   Overcast
1:25 PM 48.2 °F - 46.4 °F 93% 29.50 in 6.2 mi East 8.9 mph - N/A Rain Light Rain Showers
1:45 PM 48.2 °F - 46.4 °F 93% 29.47 in 6.2 mi East 8.9 mph - N/A   Overcast
2:15 PM 50.0 °F - 46.4 °F 87% 29.47 in 6.2 mi East 6.7 mph - N/A   Overcast
2:42 PM 50.0 °F - 48.2 °F 94% 29.47 in 6.2 mi East 6.7 mph - N/A Rain Light Rain
2:45 PM - - - N/A% - 6.2 mi East 8.9 mph - N/A   Mostly Cloudy
3:15 PM 51.8 °F - 48.2 °F 88% 29.47 in 6.2 mi East 8.9 mph - N/A   Mostly Cloudy
3:45 PM 51.8 °F - 48.2 °F 88% 29.47 in 6.2 mi East 8.9 mph - N/A   Mostly Cloudy
4:15 PM 51.8 °F - 48.2 °F 88% 29.47 in 6.2 mi ESE 8.9 mph - N/A   Mostly Cloudy
4:45 PM 51.8 °F - 48.2 °F 88% 29.47 in 6.2 mi ESE 8.9 mph - N/A   Overcast
5:15 PM 51.8 °F - 48.2 °F 88% 29.47 in 6.2 mi ESE 6.7 mph - N/A   Overcast
5:45 PM - - - N/A% - 6.2 mi ESE 6.7 mph - N/A   Mostly Cloudy
6:15 PM 53.6 °F - 48.2 °F 82% 29.50 in 6.2 mi SSE 8.9 mph - N/A   Overcast
6:45 PM 53.6 °F - 48.2 °F 82% 29.50 in 6.2 mi South 8.9 mph - N/A Rain Light Rain
7:15 PM 51.8 °F - 48.2 °F 88% 29.50 in 6.2 mi South 11.2 mph - N/A Rain Light Rain
7:45 PM 51.8 °F - 48.2 °F 88% 29.50 in 6.2 mi South 8.9 mph - N/A Rain Light Rain
8:15 PM 51.8 °F - 50.0 °F 94% 29.50 in 6.2 mi South 8.9 mph - N/A Rain Light Rain
8:33 PM 51.8 °F - 50.0 °F 94% 29.50 in - South 8.9 mph - N/A   Clear
8:45 PM - - - N/A% - 1.9 mi South 8.9 mph - N/A   Overcast
9:15 PM 51.8 °F - 48.2 °F 88% 29.53 in - South 11.2 mph - N/A   Clear
9:45 PM 51.8 °F - 48.2 °F 88% 29.53 in - South 11.2 mph - N/A   Clear
10:15 PM 51.8 °F - 48.2 °F 88% 29.53 in - SSW 11.2 mph - N/A   Clear
10:45 PM 53.6 °F - 50.0 °F 88% 29.56 in - SSW 8.9 mph - N/A   Clear
11:15 PM 51.8 °F - 48.2 °F 88% 29.56 in - SSW 8.9 mph - N/A   Clear
11:45 PM - - - N/A% - 1.9 mi North - - N/A   Overcast